sat.trackr.live / text

‹ back to catalog

KUIPER-00073

NORAD 64820 · 2025-151E

PAYLOAD ACTIVE UNKNOWN

§ Identity

Operator
Country
US
Launch date
2025-07-16
Launch site
AFETR
Launch vehicle
Mass (kg)
RCS (m²)

External: N2YO · Heavens-Above · Gunter

§ Orbital elements

Epoch: 2026-09-21T20:44:11.405760Z

Period
97.30 min
Inclination
51.8996°
Eccentricity
0.0001160
Mean motion
14.79929432 rev/d
Perigee alt
628.7 km
Apogee alt
630.4 km
Semi-major
7,007.7 km
B*
2.8081e-4
RAAN
155.5937°
Arg perigee
87.9329°
Mean anomaly
272.1766°
Rev number
6,550

§ Raw data

KUIPER-000731 64820U 25151E   26264.86402090  .00001920  00000+0  28081-3 0  99962 64820  51.8996 155.5937 0001160  87.9329 272.1766 14.79929432 65508

JSON: /api/v1/satellites/64820 · /tle

For live sub-satellite position, see the globe view (requires WebGL).

§ Visibility from observer

Set your observer location to see the next 7 days of passes ≥ 10°. The values pass through the URL so the page stays shareable.

No JS? Fill the form by hand. The geolocation button needs JavaScript.